York, NE

6:53 PM CST on December 05, 2019 (GMT -0600)
York Municipal

Weather History for KJYR - October, 2019

Change the Weather History Date:

Tuesday, October 1, 2019

  Actual Average Record
Temperature  
Mean Temperature 58 °F -  
Max Temperature 66 °F 75 °F 94 °F (1963)
Min Temperature 50 °F 47 °F 28 °F (1985)
Degree Days  
Heating Degree Days 7    
Growing Degree Days 8 (Base 50)    
Moisture  
Dew Point 56 °F    
Average Humidity 97    
Maximum Humidity 100    
Minimum Humidity 94    
Precipitation  
Precipitation 0.87 in - - ()
Sea Level Pressure  
Sea Level Pressure 29.90 in    
Wind  
Wind Speed 10 mph (NNE)    
Max Wind Speed 16 mph    
Max Gust Speed 23 mph    
Visibility 8 miles    
Events Rain , Thunderstorm    
Averages and records for this station are not official NWS values.
T = Trace of Precipitation, MM = Missing Value Source: NWS Daily Summary

Daily Weather History Graph

Daily Weather History Graph

Search for Another Location

Airport or City:

Astronomy

Oct. 01, 2019 Rise Set
Actual Time 7:26 AM CDT 7:12 PM CDT
Civil Twilight 6:59 AM CDT 7:40 PM CDT
Nautical Twilight 6:27 AM CDT 8:11 PM CDT
Astronomical Twilight 5:55 AM CDT 8:43 PM CDT
Moon 10:45 AM CDT (10/1) 9:25 PM CDT (10/1)
Length of Visible Light 12h 40m
Length of Day
11h 45m
Waxing Crescent, 12% of the Moon is Illuminated
Oct 1
Waxing Crescent
Oct 5
First Quarter
Oct 13
Full
Oct 21
Last Quarter
Oct 27
New

Hourly Weather History & Observations

Time (CDT) Temp. Dew Point Humidity Pressure Visibility Wind Dir Wind Speed Gust Speed Precip Events Conditions
12:15 AM 66.2 °F 66.2 °F 100% 29.85 in 10.0 mi NNE 6.9 mph - N/A   Overcast
12:35 AM 66.2 °F 64.4 °F 94% 29.85 in 10.0 mi NE 6.9 mph - N/A   Overcast
12:55 AM 66.2 °F 64.4 °F 94% 29.85 in 10.0 mi NE 6.9 mph - N/A   Overcast
1:15 AM 66.2 °F 64.4 °F 94% 29.86 in 10.0 mi NNE 11.5 mph - N/A   Overcast
1:35 AM 64.4 °F 64.4 °F 100% 29.86 in 10.0 mi NNE 13.8 mph - N/A   Overcast
1:55 AM 64.4 °F 62.6 °F 94% 29.86 in 10.0 mi NE 10.4 mph - N/A   Overcast
2:15 AM 64.4 °F 62.6 °F 94% 29.86 in 10.0 mi NE 9.2 mph - N/A   Overcast
2:35 AM 64.4 °F 62.6 °F 94% 29.86 in 10.0 mi ENE 6.9 mph - N/A   Overcast
2:55 AM 64.4 °F 62.6 °F 94% 29.86 in 10.0 mi ENE 5.8 mph - N/A   Overcast
3:15 AM 64.4 °F 64.4 °F 100% 29.85 in 10.0 mi East 6.9 mph - N/A   Overcast
3:35 AM 64.4 °F 64.4 °F 100% 29.85 in 10.0 mi North 5.8 mph - N/A   Overcast
3:55 AM 64.4 °F 62.6 °F 94% 29.85 in 10.0 mi NNE 8.1 mph - N/A   Overcast
4:15 AM 64.4 °F 62.6 °F 94% 29.86 in 10.0 mi NNW 6.9 mph - N/A   Overcast
4:35 AM 62.6 °F 62.6 °F 100% 29.86 in 10.0 mi NE 9.2 mph 21.9 mph 0.01 in Rain Light Rain
4:55 AM 62.6 °F 62.6 °F 100% 29.87 in 10.0 mi North 11.5 mph - 0.01 in   Overcast
5:15 AM 62.6 °F 60.8 °F 94% 29.87 in 10.0 mi NNE 11.5 mph - N/A Rain , Thunderstorm Light Rain
5:35 AM 60.8 °F 59.0 °F 94% 29.89 in 8.0 mi North 12.7 mph 19.6 mph 0.04 in Rain , Thunderstorm Light Thunderstorms and Rain
5:55 AM 59.0 °F 59.0 °F 100% 29.88 in 8.0 mi NNE 10.4 mph - 0.06 in Rain Light Rain
6:15 AM 59.0 °F 59.0 °F 100% 29.89 in 10.0 mi NNE 13.8 mph - N/A   Overcast
6:35 AM 59.0 °F 59.0 °F 100% 29.88 in 10.0 mi NNE 13.8 mph 19.6 mph N/A   Overcast
6:55 AM 59.0 °F 59.0 °F 100% 29.91 in 9.0 mi NNE 4.6 mph - N/A Rain Light Rain
7:15 AM 59.0 °F 57.2 °F 94% 29.85 in 10.0 mi NNE 16.1 mph - N/A   Overcast
7:35 AM 59.0 °F 57.2 °F 94% 29.88 in 10.0 mi NNE 9.2 mph 20.7 mph N/A   Overcast
7:55 AM 59.0 °F 57.2 °F 94% 29.91 in 10.0 mi North 5.8 mph - N/A   Overcast
8:15 AM 59.0 °F 57.2 °F 94% 29.92 in 7.0 mi North 8.1 mph - 0.01 in Rain Light Rain
8:35 AM 59.0 °F 57.2 °F 94% 29.90 in 9.0 mi NNE 10.4 mph - 0.02 in Rain Light Rain
8:55 AM 57.2 °F 57.2 °F 100% 29.90 in 10.0 mi NE 8.1 mph - 0.02 in   Overcast
9:15 AM 57.2 °F 57.2 °F 100% 29.91 in 10.0 mi North 15.0 mph - N/A   Overcast
9:35 AM 57.2 °F 57.2 °F 100% 29.92 in 10.0 mi NNE 12.7 mph - N/A Rain Light Rain
9:55 AM 57.2 °F 57.2 °F 100% 29.91 in 3.0 mi NNE 10.4 mph - N/A Rain Light Rain
10:15 AM 57.2 °F 57.2 °F 100% 29.93 in 10.0 mi NE 6.9 mph - N/A   Overcast
10:35 AM 57.2 °F 57.2 °F 100% 29.93 in 10.0 mi NNE 10.4 mph - N/A Rain Light Rain
10:55 AM 57.2 °F 57.2 °F 100% 29.93 in 5.0 mi NE 9.2 mph - 0.02 in Rain Light Rain
11:15 AM 57.2 °F 57.2 °F 100% 29.92 in 8.0 mi ENE 9.2 mph - 0.02 in Rain Light Rain
11:35 AM 57.2 °F 57.2 °F 100% 29.92 in 8.0 mi NE 8.1 mph - 0.03 in Rain Light Rain
11:55 AM 57.2 °F 57.2 °F 100% 29.93 in 5.0 mi NE 8.1 mph - 0.07 in Rain Rain
12:15 PM 57.2 °F 57.2 °F 100% 29.90 in 1.8 mi ENE 9.2 mph - 0.11 in Rain Heavy Rain
12:35 PM 57.2 °F 57.2 °F 100% 29.92 in 1.5 mi NNE 8.1 mph - 0.24 in Rain Heavy Rain
12:55 PM 57.2 °F 57.2 °F 100% 29.90 in 8.0 mi North 11.5 mph - 0.28 in Rain Light Rain
1:15 PM 57.2 °F 57.2 °F 100% 29.90 in 10.0 mi NNE 4.6 mph - N/A   Overcast
1:35 PM 57.2 °F 57.2 °F 100% 29.89 in 10.0 mi NE 11.5 mph - N/A   Overcast
1:55 PM 57.2 °F 57.2 °F 100% 29.89 in 6.0 mi NNE 9.2 mph - N/A Rain Light Rain
2:15 PM 57.2 °F 57.2 °F 100% 29.88 in 5.0 mi NNE 8.1 mph - 0.02 in Rain Rain
2:35 PM 57.2 °F 57.2 °F 100% 29.87 in 1.0 mi North 8.1 mph - 0.22 in Rain Heavy Rain
2:55 PM 57.2 °F 57.2 °F 100% 29.88 in 6.0 mi North 8.1 mph - 0.24 in Rain Rain
3:15 PM 57.2 °F 55.4 °F 94% 29.87 in 6.0 mi North 13.8 mph 18.4 mph 0.02 in Rain Rain
3:35 PM 57.2 °F 55.4 °F 94% 29.86 in 8.0 mi North 15.0 mph 21.9 mph 0.03 in Rain Light Rain
3:55 PM 55.4 °F 55.4 °F 100% 29.88 in 8.0 mi North 12.7 mph 19.6 mph 0.03 in Rain Light Rain
4:15 PM 55.4 °F 53.6 °F 94% 29.89 in 10.0 mi North 13.8 mph 19.6 mph N/A Rain Light Rain
4:55 PM 53.6 °F 53.6 °F 100% 29.89 in 7.0 mi North 12.7 mph 18.4 mph 0.01 in Rain Light Rain
5:15 PM 53.6 °F 53.6 °F 100% 29.89 in 5.0 mi North 15.0 mph 18.4 mph 0.02 in Rain Rain
5:35 PM 53.6 °F 53.6 °F 100% 29.88 in 7.0 mi North 12.7 mph 18.4 mph 0.05 in Rain Light Rain
5:55 PM 53.6 °F 51.8 °F 94% 29.89 in 9.0 mi North 15.0 mph 23.0 mph 0.06 in Rain Light Rain
6:15 PM 53.6 °F 51.8 °F 94% 29.89 in 6.0 mi NNE 15.0 mph 23.0 mph 0.02 in Rain Rain
6:35 PM 51.8 °F 50.0 °F 94% 29.91 in 5.0 mi North 12.7 mph 17.3 mph 0.04 in Rain Rain
6:55 PM 51.8 °F 50.0 °F 94% 29.91 in 3.0 mi North 10.4 mph 19.6 mph 0.07 in Rain Rain
7:15 PM 51.8 °F 50.0 °F 94% 29.91 in 10.0 mi North 13.8 mph 19.6 mph N/A   Overcast
7:35 PM 51.8 °F 50.0 °F 94% 29.91 in 10.0 mi North 11.5 mph 17.3 mph N/A   Overcast
7:55 PM 51.8 °F 50.0 °F 94% 29.91 in 10.0 mi North 9.2 mph 20.7 mph N/A   Overcast
8:15 PM 51.8 °F 50.0 °F 94% 29.91 in 10.0 mi North 11.5 mph 18.4 mph N/A   Overcast
8:35 PM 50.0 °F 50.0 °F 100% 29.91 in 10.0 mi North 15.0 mph 21.9 mph N/A   Overcast
8:55 PM 50.0 °F 50.0 °F 100% 29.93 in 10.0 mi NNE 15.0 mph - N/A   Overcast
9:15 PM 50.0 °F 50.0 °F 100% 29.95 in 10.0 mi North 9.2 mph 16.1 mph N/A   Overcast
9:35 PM 50.0 °F 50.0 °F 100% 29.96 in 7.0 mi North 8.1 mph - N/A   Overcast
9:55 PM 50.0 °F 48.2 °F 94% 29.98 in 10.0 mi NNW 10.4 mph - N/A   Overcast
10:15 PM 50.0 °F 48.2 °F 94% 29.99 in 10.0 mi NNW 6.9 mph - N/A   Overcast
10:35 PM 50.0 °F 48.2 °F 94% 29.99 in 10.0 mi North 6.9 mph - N/A   Overcast
10:55 PM 50.0 °F 48.2 °F 94% 29.99 in 5.0 mi North 9.2 mph - N/A   Overcast
11:15 PM 50.0 °F 48.2 °F 94% 29.99 in 9.0 mi North 9.2 mph 16.1 mph N/A   Overcast
11:35 PM 50.0 °F 48.2 °F 94% 29.99 in 5.0 mi North 8.1 mph - N/A   Overcast
11:55 PM 50.0 °F 48.2 °F 94% 29.99 in 8.0 mi NNW 9.2 mph - N/A   Overcast